Krabi, Thailand

6:23 AM +07 on November 14, 2019 (GMT +0700)
Krabi

Weather History for VTSG - October, 2019

Change the Weather History Date:

Monday, October 21, 2019

  Actual Average (WUND) Record (WUND)
Temperature  
Mean Temperature 78 °F -  
Max Temperature 80 °F - - (-1)
Min Temperature 75 °F - - (-1)
Cooling Degree Days 12    
Growing Degree Days 28 (Base 50)    
Moisture  
Dew Point 76 °F    
Average Humidity 97    
Maximum Humidity 100    
Minimum Humidity 89    
Precipitation  
Precipitation 0.00 in - - ()
Sea Level Pressure  
Sea Level Pressure 29.83 in    
Wind  
Wind Speed 4 mph ()    
Max Wind Speed 6 mph    
Max Gust Speed -    
Visibility 4.9 miles    
Events Fog , Rain    
Averages and records for this station are not official NWS values.
T = Trace of Precipitation, MM = Missing Value Source: Averaged Metar Reports

Daily Weather History Graph

Daily Weather History Graph

Search for Another Location

Airport or City:

Astronomy

Oct. 21, 2019 Rise Set
Actual Time 6:11 AM +07 6:06 PM +07
Civil Twilight 5:50 AM +07 6:27 PM +07
Nautical Twilight 5:25 AM +07 6:51 PM +07
Astronomical Twilight 5:01 AM +07 7:16 PM +07
Moon No Moon Rise 12:22 PM +07 (10/21)
Length of Visible Light 12h 37m
Length of Day
11h 54m
Waning Gibbous, 53% of the Moon is Illuminated
Oct 21
Waning Gibbous
Oct 21
Last Quarter
Oct 28
New
Nov 4
First Quarter
Nov 12
Full

Hourly Weather History & Observations

Time (+07) Temp. Heat Index Dew Point Humidity Pressure Visibility Wind Dir Wind Speed Gust Speed Precip Events Conditions
12:00 AM 77.0 °F - 77.0 °F 100% 29.86 in 5.0 mi North 4.6 mph - N/A Fog Patches of Fog
1:00 AM 77.0 °F - 75.2 °F 94% 29.83 in 5.0 mi NNE 4.6 mph - N/A Fog Patches of Fog
2:00 AM 77.0 °F - 75.2 °F 94% 29.80 in 3.1 mi NE 4.6 mph - N/A   Mostly Cloudy
3:00 AM 75.2 °F - 75.2 °F 100% 29.80 in 3.1 mi NE 5.8 mph - N/A   Scattered Clouds
4:00 AM 75.2 °F - 75.2 °F 100% 29.80 in 5.0 mi NE 5.8 mph - N/A Fog Patches of Fog
5:00 AM 75.2 °F - 75.2 °F 100% 29.80 in 4.3 mi NE 5.8 mph - N/A Fog Patches of Fog
7:00 AM 75.2 °F - 75.2 °F 100% 29.83 in 3.1 mi NE 4.6 mph - N/A Rain Light Rain
8:00 AM 77.0 °F - 75.2 °F 94% 29.86 in 3.1 mi NNE 4.6 mph - N/A   Mostly Cloudy
9:00 AM 77.0 °F - 77.0 °F 100% 29.89 in 3.1 mi ENE 3.5 mph - N/A Rain Light Rain
10:00 AM 77.0 °F - 77.0 °F 100% 29.89 in 4.3 mi NNE 4.6 mph - N/A Rain Light Rain
11:00 AM 78.8 °F - 77.0 °F 94% 29.89 in 5.0 mi NE 4.6 mph - N/A Rain Light Rain
1:00 PM 78.8 °F - 77.0 °F 94% 29.83 in 6.2 mi East 4.6 mph - N/A   Mostly Cloudy
2:00 PM 78.8 °F - 78.8 °F 100% 29.80 in 6.2 mi Variable 1.2 mph - N/A   Mostly Cloudy
4:00 PM 80.6 °F 88.1 °F 78.8 °F 94% 29.77 in 6.2 mi NNE 4.6 mph - N/A   Mostly Cloudy
5:00 PM 80.6 °F 87.1 °F 77.0 °F 89% 29.77 in 6.2 mi ENE 3.5 mph - N/A   Mostly Cloudy
6:00 PM 78.8 °F - 77.0 °F 94% 29.80 in 6.2 mi ENE 3.5 mph - N/A   Mostly Cloudy
7:00 PM 77.0 °F - 77.0 °F 100% 29.80 in 6.2 mi East 2.3 mph - N/A   Scattered Clouds
8:00 PM 77.0 °F - 77.0 °F 100% 29.83 in 5.6 mi Calm Calm - N/A   Partly Cloudy
9:00 PM 77.0 °F - 77.0 °F 100% 29.86 in 5.6 mi ENE 2.3 mph - N/A   Partly Cloudy
10:00 PM 77.0 °F - 77.0 °F 100% 29.86 in 5.6 mi East 4.6 mph - N/A   Partly Cloudy
11:00 PM 75.2 °F - 75.2 °F 100% 29.86 in 5.0 mi Variable 2.3 mph - N/A Fog Patches of Fog